Location: Berlise
(49.6641°N, 4.1077°E)
Time: 03:16:43
(UTC+00:00)

Cosmos 2360 Rocket - Pass Details

Date: 27 January 2021
Orbit: 832 x 846 km, 71.0° (Epoch: 24 February)

Event Time Altitude Azimuth Distance (km) Brightness Sun altitude
Exits shadow 04:15:19 18° 358° (N) 1,960 4.1 -30.2°
Drops below altitude 10° 04:17:11 10° 13° (NNE) 2,468 4.8 -29.9°
Sets 04:20:03 0° 26° (NNE) 3,409 5.8 -29.4°
